{"data":{"norad_id":59801,"intl_designator":"2024-093V","name":"STARLINK-31815","alt_names":[],"object_type":"PAYLOAD","status":"ACTIVE","operator":null,"country":"US","launch_date":"2024-05-18","launch_site_code":"AFETR","launch_vehicle":null,"mission":null,"orbit_class":"UNKNOWN","rcs_meters":null,"size_class":null,"mass_kg":null,"dimensions":null,"purposes":["comms"],"wikipedia_slug":null,"has_3d_model":false,"image_url":null,"decayed_at":null,"tle_current":{"epoch":"2026-09-21T04:39:35.708256Z","epoch_age_seconds":114513,"freshness":"FRESH","line1":"1 59801U 24093V   26264.19416329  .00000777  00000+0  37767-4 0  9990","line2":"2 59801  43.0016 184.9283 0001357 263.8912  96.1785 15.27582003132590","mean_motion":15.27582003,"eccentricity":0.0001357,"inclination_deg":43.0016,"raan_deg":184.9283,"arg_perigee_deg":263.8912,"mean_anomaly_deg":96.1785,"bstar":3.7767e-5,"rev_number":13259,"period_min":94.266625108963,"perigee_km":482.11203620429,"apogee_km":483.97416048298,"semimajor_km":6861.1800983436,"source":"CELESTRAK","updated_at":"2026-09-22T09:00:49.074764Z"}}}